Notices

What's New in latest Release from April 7th, 2021:

- Updated Glossary, including Speed of Maximum Gust, and Total Hourly Precipitation

- Updated national and regional climate services offices contacts and prices information

- Addition of station inventory lists for 1981-2010, 1971-2000, and 1961-1990 Normals.

If you haven't already, please take our survey and provide feedback about our website: https://eccc.sondage-survey.ca/f/LanguageSelection.aspx?s=442ca660-fcf1-47c0-95a9-59707d6fd709

Hourly Data Report for April 06, 2006

TORONTO CITY
ONTARIO

43°40'00.000" N
79°24'00.000" W
112.50 m
6158355
71508
XTO

Download Data

Hourly Data (April 2006)
Hourly Data Report for April 6, 2006
TIME
LST
Temp Definition
°C
Dew Point Definition
°C
Rel Hum Definition
%
Precip. Amount Definition
mm

Wind Dir Definition
10's deg

Wind Spd Definition
km/h
Visibility Definition
km
Stn Press Definition
kPa
Hmdx Definition


Wind Chill Definition


Weather Definition


00:00 3.9 0.5 78   LegendMM LegendMM   99.73     LegendNANA
01:00 4.1 0.7 78   LegendMM LegendMM   99.75     LegendNANA
02:00 4.2 0.8 79   LegendMM LegendMM   99.72     LegendNANA
03:00 3.9 0.6 79   LegendMM LegendMM   99.75     LegendNANA
04:00 3.2 0.4 82   LegendMM LegendMM   99.81     LegendNANA
05:00 2.9 0.2 82   LegendMM LegendMM   99.83     LegendNANA
06:00 2.5 0.2 85   LegendMM LegendMM   99.85     LegendNANA
07:00 3.8 1.1 83   LegendMM LegendMM   99.90     LegendNANA
08:00 5.2 0.9 74   LegendMM LegendMM   99.90     LegendNANA
09:00 6.2 0.9 69   LegendMM LegendMM   99.91     LegendNANA
10:00 7.7 1.4 64   LegendMM LegendMM   99.91     LegendNANA
11:00 9.8 1.7 57   LegendMM LegendMM   99.90     LegendNANA
12:00 8.9 2.5 64   LegendMM LegendMM   99.87     LegendNANA
13:00 11.5 4.1 60   LegendMM LegendMM   99.78     LegendNANA
14:00 10.8 2.2 55   LegendMM LegendMM   99.77     LegendNANA
15:00 11.4 1.0 49   LegendMM LegendMM   99.71     LegendNANA
16:00 11.6 0.8 47   LegendMM LegendMM   99.61     LegendNANA
17:00 11.0 0.7 49   LegendMM LegendMM   99.58     LegendNANA
18:00 10.9 1.7 53   LegendMM LegendMM   99.60     LegendNANA
19:00 8.3 2.4 66   LegendMM LegendMM   99.62     LegendNANA
20:00 8.6 1.2 60   LegendMM LegendMM   99.60     LegendNANA
21:00 7.4 2.2 70   LegendMM LegendMM   99.58     LegendNANA
22:00 7.5 2.5 71   LegendMM LegendMM   99.46     LegendNANA
23:00 7.3 2.0 69   LegendMM LegendMM   99.38     LegendNANA

Notes on Data Quality.

Legend

  • E = Estimated
  • M = Missing
  • NA = Not Available*
  • [empty] = Indicates an unobserved value
Date modified: